Regional Weather Roundup
Issued by NWS

Home | Current Version | Previous Version | Graphics & Text | Print | Product List | Glossary On
Versions: 1 2 3 4 5 6 7 8 9 10 11 12 13 14 15 16 17 18 19 20 21 22 23 24 25 26 27 28 29 30 31 32 33 34 35 36 37 38 39 40 41 42 43 44 45 46 47 48 49 50
000
ASUS45 KABQ 261001
RWRNM
WEATHER ROUNDUP FOR NEW MEXICO
NATIONAL WEATHER SERVICE ALBUQUERQUE NM
300 AM MST WED NOV 26 2014

NOTE: "FAIR" MEANS FEW OR NO CLOUDS BELOW 12,000 FEET AGL WITH NO
       SIGNIFICANT WEATHER OR OBSTRUCTIONS TO VISION.

      THIS PRODUCT IS RELEASED AS TWO VERSIONS.  ONE VERSION NEAR
      THE TOP OF THE HOUR CONTAINING PRELIMINARY DATA FROM ALBUQUERQUE
      AND OTHER STATIONS.  A FINAL VERSION WITH ADDITIONAL DATA IS
      ISSUED ABOUT 10 MINUTES AFTER THE HOUR.

NMZ501-503-504-510>518-261100-
NORTHWEST PLATEAU/NORTHCENTRAL MOUNTAINS

CITY           SKY/WX    TMP DP  RH WIND       PRES   REMARKS
FARMINGTON     CLEAR     30   6  36 SW6       30.32S WCI  24
SANTA FE       PTCLDY    35  13  40 N18G25    30.25R WCI  24
TAOS           PTCLDY    16   9  73 N7        30.28F WCI   6

$$
NMZ402-403-502-505>509-261100-
WESTCENTRAL MOUNTAINS/SOUTHWEST MOUNTAINS

CITY           SKY/WX    TMP DP  RH WIND       PRES   REMARKS
GALLUP         CLEAR     20   1  43 NE3       30.38S
SILVER CITY    CLEAR     36   7  30 N12       30.34S WCI  27

$$
NMZ407-409-411-412-261100-
SOUTHERN DESERTS

CITY           SKY/WX    TMP DP  RH WIND       PRES   REMARKS
LORDSBURG      FAIR      28   1  31 W8        30.34R WCI  20
DEMING         CLEAR     34   1  24 VRB5      30.32S WCI  30
HOLLOMAN AFB   PTCLDY    31   6  35 N9        30.28R WCI  23
T OR C         CLEAR     35   8  32 SE5       30.31S WCI  31

$$
NMZ519>523-261100-
CENTRAL VALLEYS/CENTRAL HIGHLANDS

CITY           SKY/WX    TMP DP  RH WIND       PRES   REMARKS
ALBUQUERQUE    PTCLDY    37   7  28 W3        30.33R
DOUBLE EAGLE   PTCLDY    31   7  35 NW5       30.32R WCI  26
MORIARTY ARPT  FAIR      35  13  41 NW10      30.27F WCI  27
CLINES CORNERS PTCLDY    32  10  40 NW29G36   30.19R WCI  18
BELEN          FAIR      27   4  36 CALM      30.34R
SOCORRO        FAIR      35   4  27 SW8       30.32F WCI  28

$$
NMZ524>526-539-540-261100-
SOUTHCENTRAL MOUNTAINS

CITY           SKY/WX    TMP DP  RH WIND       PRES   REMARKS
RUIDOSO        PTCLDY    41  16  36 NW20G36   30.28F

$$
NMZ527>531-261100-
NORTHEAST HIGHLANDS/NORTHEAST PLAINS

CITY           SKY/WX    TMP DP  RH WIND       PRES   REMARKS
LAS VEGAS      CLOUDY    29  17  61 S12       30.15S WCI  19
RATON          CLEAR     24  17  74 E9        30.11R WCI  14
CLAYTON        CLEAR     31  24  75 N16       30.14R WCI  20

$$
NMZ532>537-261100-
EASTCENTRAL PLAINS

CITY           SKY/WX    TMP DP  RH WIND       PRES   REMARKS
TUCUMCARI      PTCLDY    41  21  44 W16       30.07R
CANNON AFB     MOCLDY    43  17  34 NW16      30.09S
CLOVIS AIRPORT PTCLDY    41  16  36 W14       30.09R

$$
NMZ028-029-538-261100-
SOUTHEAST PLAINS

CITY           SKY/WX    TMP DP  RH WIND       PRES   REMARKS
ROSWELL        PTCLDY    32  15  49 S6        30.16R WCI  26
CARLSBAD       CLEAR     40  15  36 SE6       30.14R
HOBBS          CLEAR     43   9  24 W13       30.13F


$$


USA.gov is the U.S. government's official web portal to all federal, state and local government web resources and services.